LOT529 EPWA-LKPR

Flight info

Callsign LOT529
Flight time 0h 54m
Altitude 34000
Route SOXER N869 TOMTI DCT ASTEL DCT GOLOP
Aircraft B738/M-SDE2E3FGHIJ1RWY/LB1

Departure

Time 2026-05-04 17:23
Airport Warsaw Chopin Airport (EPWA)

Arrival

Time 2026-05-04 18:17
Airport Václav Havel Airport Prague (LKPR)
Time Latitude Longitude Altitude Speed Heading
2026-05-04 16:59 52.17149 20.97011 334 ft 0 kts 62°
2026-05-04 17:14 52.17144 20.96996 333 ft 4 kts 62°
2026-05-04 17:14 52.17132 20.96958 332 ft 4 kts 62°
2026-05-04 17:14 52.17119 20.96888 333 ft 4 kts 120°
2026-05-04 17:15 52.17137 20.96859 334 ft 4 kts 150°
2026-05-04 17:15 52.17141 20.96855 335 ft 0 kts 152°
2026-05-04 17:18 52.17122 20.96871 332 ft 10 kts 152°
2026-05-04 17:19 52.16902 20.97063 336 ft 20 kts 152°
2026-05-04 17:19 52.16662 20.97272 335 ft 19 kts 152°
2026-05-04 17:20 52.16527 20.97538 334 ft 15 kts 114°
2026-05-04 17:20 52.16446 20.97802 335 ft 10 kts 143°
2026-05-04 17:20 52.16397 20.97799 334 ft 2 kts 205°
2026-05-04 17:21 52.16368 20.97775 336 ft 4 kts 207°
2026-05-04 17:21 52.16332 20.97575 334 ft 13 kts 293°
2026-05-04 17:22 52.16448 20.97160 333 ft 81 kts 294°
2026-05-04 17:22 52.16787 20.95945 338 ft 152 kts 291°
2026-05-04 17:23 52.18388 20.90628 2722 ft 179 kts 295°
2026-05-04 17:23 52.19002 20.88828 3598 ft 183 kts 295°
2026-05-04 17:23 52.20209 20.85097 5236 ft 189 kts 282°
2026-05-04 17:24 52.20156 20.82875 5528 ft 210 kts 253°
2026-05-04 17:24 52.19492 20.75096 7023 ft 243 kts 274°
2026-05-04 17:25 52.19717 20.72364 7792 ft 244 kts 277°
2026-05-04 17:25 52.19025 20.66713 8962 ft 269 kts 249°
2026-05-04 17:26 52.17691 20.60898 10459 ft 287 kts 250°
2026-05-04 17:26 52.15408 20.50680 11728 ft 337 kts 250°
2026-05-04 17:27 52.13945 20.43379 13430 ft 342 kts 253°
2026-05-04 17:27 52.12548 20.35875 14879 ft 350 kts 253°
2026-05-04 17:28 52.11105 20.28227 16284 ft 358 kts 253°
2026-05-04 17:29 52.08849 20.16456 18331 ft 369 kts 253°
2026-05-04 17:29 52.06517 20.04389 20091 ft 380 kts 253°
2026-05-04 17:30 52.04091 19.91964 21798 ft 390 kts 252°
2026-05-04 17:31 52.02289 19.83568 22864 ft 397 kts 251°
2026-05-04 17:31 51.99487 19.70764 23896 ft 402 kts 251°
2026-05-04 17:32 51.97621 19.62184 23929 ft 405 kts 251°
2026-05-04 17:33 51.94786 19.49263 24001 ft 409 kts 251°
2026-05-04 17:33 51.93821 19.44901 24414 ft 411 kts 251°
2026-05-04 17:34 51.90910 19.31792 25811 ft 416 kts 251°
2026-05-04 17:34 51.89926 19.27371 26207 ft 419 kts 251°
2026-05-04 17:35 51.86929 19.13965 27376 ft 426 kts 251°
2026-05-04 17:35 51.84929 19.04892 28107 ft 431 kts 252°
2026-05-04 17:35 51.83936 19.00305 28453 ft 433 kts 252°
2026-05-04 17:36 51.82945 18.95738 28856 ft 434 kts 252°
2026-05-04 17:36 51.81942 18.91144 29396 ft 432 kts 252°
2026-05-04 17:36 51.80940 18.86581 29958 ft 430 kts 252°
2026-05-04 17:36 51.79941 18.82048 30374 ft 428 kts 252°
2026-05-04 17:37 51.78939 18.77516 30776 ft 428 kts 252°
2026-05-04 17:37 51.78275 18.74520 31056 ft 427 kts 252°
2026-05-04 17:37 51.77265 18.69968 31493 ft 425 kts 252°
2026-05-04 17:37 51.76268 18.65479 31914 ft 423 kts 252°
2026-05-04 17:38 51.75289 18.61080 32334 ft 422 kts 252°
2026-05-04 17:38 51.74298 18.56636 32764 ft 420 kts 252°
2026-05-04 17:38 51.73309 18.52210 33177 ft 419 kts 252°
2026-05-04 17:38 51.72322 18.47804 33569 ft 417 kts 252°
2026-05-04 17:39 51.70345 18.38998 33908 ft 421 kts 252°
2026-05-04 17:39 51.68346 18.30131 33918 ft 419 kts 252°
2026-05-04 17:40 51.66368 18.21403 33927 ft 413 kts 252°
2026-05-04 17:40 51.64390 18.12703 33934 ft 414 kts 251°
2026-05-04 17:41 51.62405 18.04006 33934 ft 414 kts 251°
2026-05-04 17:41 51.60409 17.95295 33928 ft 415 kts 251°
2026-05-04 17:42 51.58406 17.86599 33925 ft 415 kts 251°
2026-05-04 17:42 51.56379 17.77920 33932 ft 414 kts 251°
2026-05-04 17:43 51.54348 17.69269 33929 ft 414 kts 251°
2026-05-04 17:43 51.52316 17.60632 33932 ft 413 kts 251°
2026-05-04 17:44 51.50278 17.51998 33930 ft 413 kts 251°
2026-05-04 17:44 51.48237 17.43385 33929 ft 413 kts 251°
2026-05-04 17:45 51.46191 17.34773 33931 ft 413 kts 251°
2026-05-04 17:45 51.44152 17.26168 33928 ft 413 kts 251°
2026-05-04 17:46 51.42111 17.17571 33926 ft 413 kts 251°
2026-05-04 17:46 51.40074 17.09028 33927 ft 413 kts 251°
2026-05-04 17:47 51.38020 17.00447 33921 ft 413 kts 250°
2026-05-04 17:47 51.35960 16.91876 33917 ft 413 kts 250°
2026-05-04 17:48 51.33892 16.83307 33920 ft 413 kts 250°
2026-05-04 17:48 51.31818 16.74746 33920 ft 413 kts 250°
2026-05-04 17:49 51.29742 16.66213 33921 ft 412 kts 250°
2026-05-04 17:49 51.27660 16.57684 33923 ft 412 kts 250°
2026-05-04 17:50 51.25572 16.49168 33926 ft 411 kts 250°
2026-05-04 17:50 51.23483 16.40678 33931 ft 411 kts 250°
2026-05-04 17:51 51.21389 16.32200 33928 ft 410 kts 250°
2026-05-04 17:51 51.19294 16.23749 33935 ft 410 kts 250°
2026-05-04 17:52 51.17193 16.15309 33932 ft 409 kts 250°
2026-05-04 17:52 51.15092 16.06899 33935 ft 408 kts 249°
2026-05-04 17:53 51.12985 15.98499 33935 ft 408 kts 249°
2026-05-04 17:53 51.10920 15.90293 33938 ft 408 kts 249°
2026-05-04 17:54 51.08805 15.81922 33937 ft 407 kts 249°
2026-05-04 17:54 51.06686 15.73563 33942 ft 408 kts 249°
2026-05-04 17:55 51.05624 15.69384 33711 ft 410 kts 249°
2026-05-04 17:55 51.04559 15.65204 33399 ft 404 kts 249°
2026-05-04 17:55 51.03524 15.61143 32956 ft 399 kts 249°
2026-05-04 17:55 51.02487 15.57086 32528 ft 395 kts 249°
2026-05-04 17:56 51.01455 15.53064 32113 ft 391 kts 249°
2026-05-04 17:56 51.00429 15.49083 31682 ft 388 kts 248°
2026-05-04 17:56 50.99410 15.45146 31278 ft 385 kts 248°
2026-05-04 17:56 50.98396 15.41228 30855 ft 382 kts 248°
2026-05-04 17:57 50.97392 15.37353 30449 ft 379 kts 248°
2026-05-04 17:57 50.96411 15.33576 30052 ft 377 kts 248°
2026-05-04 17:57 50.95418 15.29747 29595 ft 374 kts 249°
2026-05-04 17:57 50.94548 15.25890 29158 ft 370 kts 252°
2026-05-04 17:58 50.93760 15.22030 28742 ft 366 kts 252°
2026-05-04 17:58 50.92997 15.18200 28327 ft 363 kts 252°
2026-05-04 17:58 50.92238 15.14403 27915 ft 359 kts 252°
2026-05-04 17:58 50.91480 15.10652 27490 ft 357 kts 252°
2026-05-04 17:59 50.90721 15.06926 27098 ft 354 kts 252°
2026-05-04 17:59 50.89962 15.03230 26688 ft 351 kts 252°
2026-05-04 17:59 50.88456 14.95922 25897 ft 347 kts 252°
2026-05-04 18:00 50.87711 14.92324 25508 ft 345 kts 252°
2026-05-04 18:00 50.86845 14.88795 25118 ft 344 kts 243°
2026-05-04 18:00 50.85580 14.85603 24737 ft 343 kts 234°
2026-05-04 18:00 50.84006 14.82766 24333 ft 344 kts 224°
2026-05-04 18:01 50.82198 14.80312 23962 ft 343 kts 221°
2026-05-04 18:01 50.80355 14.77920 23560 ft 342 kts 221°
2026-05-04 18:01 50.78510 14.75544 23111 ft 341 kts 221°
2026-05-04 18:02 50.74863 14.70817 22300 ft 336 kts 221°
2026-05-04 18:02 50.73064 14.68472 21906 ft 334 kts 221°
2026-05-04 18:02 50.71279 14.66141 21529 ft 332 kts 221°
2026-05-04 18:02 50.69531 14.63855 21153 ft 330 kts 221°
2026-05-04 18:03 50.67750 14.61529 20783 ft 327 kts 221°
2026-05-04 18:03 50.66024 14.59274 20415 ft 326 kts 221°
2026-05-04 18:03 50.64091 14.57380 19748 ft 336 kts 202°
2026-05-04 18:03 50.61767 14.56749 19239 ft 344 kts 182°
2026-05-04 18:04 50.59382 14.57072 18878 ft 343 kts 176°
2026-05-04 18:04 50.57021 14.57542 18525 ft 341 kts 175°
2026-05-04 18:04 50.52342 14.58515 17717 ft 337 kts 175°
2026-05-04 18:05 50.50027 14.58981 17321 ft 335 kts 175°
2026-05-04 18:05 50.47722 14.59435 16926 ft 332 kts 176°
2026-05-04 18:05 50.45432 14.59878 16533 ft 330 kts 176°
2026-05-04 18:05 50.43161 14.60312 16152 ft 328 kts 176°
2026-05-04 18:06 50.38652 14.61166 15408 ft 324 kts 176°
2026-05-04 18:06 50.36420 14.61586 15049 ft 322 kts 176°
2026-05-04 18:06 50.34205 14.62002 14692 ft 320 kts 176°
2026-05-04 18:07 50.32000 14.62416 14336 ft 318 kts 176°
2026-05-04 18:07 50.29808 14.62827 13994 ft 316 kts 176°
2026-05-04 18:07 50.27633 14.63235 13629 ft 314 kts 176°
2026-05-04 18:07 50.25465 14.63640 13228 ft 313 kts 176°
2026-05-04 18:08 50.23308 14.64043 12848 ft 311 kts 176°
2026-05-04 18:08 50.21164 14.64443 12450 ft 310 kts 176°
2026-05-04 18:08 50.19027 14.64842 12069 ft 308 kts 176°
2026-05-04 18:08 50.16918 14.65236 11795 ft 299 kts 176°
2026-05-04 18:09 50.12924 14.65983 11145 ft 281 kts 176°
2026-05-04 18:09 50.09115 14.66690 10308 ft 274 kts 176°
2026-05-04 18:10 50.07226 14.67039 9838 ft 273 kts 176°
2026-05-04 18:10 50.05371 14.67382 9367 ft 271 kts 175°
2026-05-04 18:10 50.03484 14.67732 8899 ft 269 kts 175°
2026-05-04 18:10 50.01642 14.68072 8322 ft 271 kts 175°
2026-05-04 18:11 49.99764 14.68405 7959 ft 264 kts 179°
2026-05-04 18:11 49.98028 14.67901 7782 ft 249 kts 207°
2026-05-04 18:11 49.96730 14.66195 7530 ft 255 kts 236°
2026-05-04 18:11 49.96115 14.63600 7299 ft 262 kts 264°
2026-05-04 18:12 49.96164 14.60722 7076 ft 264 kts 274°
2026-05-04 18:12 49.96340 14.57926 6838 ft 264 kts 275°
2026-05-04 18:12 49.96561 14.55079 6457 ft 268 kts 282°
2026-05-04 18:12 49.97367 14.52432 5761 ft 276 kts 303°
2026-05-04 18:13 49.98525 14.50017 5071 ft 281 kts 306°
2026-05-04 18:13 49.99714 14.47585 4447 ft 280 kts 306°
2026-05-04 18:13 50.01906 14.43023 3571 ft 246 kts 306°
2026-05-04 18:14 50.02893 14.40965 3259 ft 229 kts 306°
2026-05-04 18:14 50.03819 14.39037 2945 ft 216 kts 307°
2026-05-04 18:14 50.04689 14.37226 2691 ft 202 kts 307°
2026-05-04 18:15 50.06232 14.34018 2172 ft 167 kts 308°
2026-05-04 18:15 50.07553 14.31271 1776 ft 157 kts 308°
2026-05-04 18:15 50.08207 14.29912 1569 ft 157 kts 308°
2026-05-04 18:16 50.08866 14.28543 1365 ft 158 kts 308°
2026-05-04 18:16 50.09513 14.27199 1224 ft 148 kts 308°
2026-05-04 18:16 50.10066 14.26058 1192 ft 111 kts 307°
2026-05-04 18:17 50.10422 14.25360 1176 ft 12 kts 358°
2026-05-04 18:17 50.10455 14.25465 1178 ft 12 kts 82°
2026-05-04 18:17 50.10466 14.25574 1183 ft 0 kts 79°
2026-05-04 18:18 50.10469 14.25601 1184 ft 8 kts 79°
2026-05-04 18:18 50.10481 14.25699 1184 ft 10 kts 78°
2026-05-04 18:18 50.10493 14.25796 1185 ft 10 kts 79°
2026-05-04 18:19 50.10527 14.26067 1178 ft 16 kts 79°
2026-05-04 18:19 50.10530 14.26252 1173 ft 18 kts 112°
2026-05-04 18:19 50.10464 14.26409 1175 ft 17 kts 125°
2026-05-04 18:20 50.10411 14.26515 1176 ft 11 kts 131°
2026-05-04 18:20 50.10367 14.26605 1177 ft 9 kts 126°
2026-05-04 18:20 50.10367 14.26666 1178 ft 6 kts 40°
2026-05-04 18:20 50.10388 14.26687 1177 ft 2 kts 34°
2026-05-04 18:21 50.10388 14.26688 1176 ft 0 kts 34°